Volver al catálogo

SL-8 DEB

ActivoLEO
NORAD 21255·DEBRIS·🇷🇺 Russia

Lanzado Dec 10, 1990 desde Plesetsk Cosmodrome

Loading…

Próximos Pases (próximas 24 horas)

TLE

ActualizadoSource: Space-Track

Época: Sep 14, 2026, 08:45 UTC

1 21255U 90111C   26257.36511373  .00000987  00000-0  24941-3 0  9995
2 21255  74.0332 228.9096 0012867 345.1020 165.2764 14.52308440878545

Sigue SL-8 DEB en tiempo real con AllMySat

Download on the App Store